This is the latest recevied weather packets stored in our database for station/object KD0RIH. If no packets are shown the sender has not sent any weather packets the latest 10 day(s).
| Time | Temp. | Humidity | Pressure | Rain* | Wind** | Luminosity | Snow |
|---|---|---|---|---|---|---|---|
| 1777948437 | 22.78° C | 49% | 1002.7 hPa | 0 mm | - | 0 W/m² | - |
| 1777948133 | 22.22° C | 49% | 1002.5 hPa | 0 mm | - | 0 W/m² | - |
| 1777947830 | 22.22° C | 50% | 1002.4 hPa | 0 mm | - | 0 W/m² | - |
| 1777947528 | 22.22° C | 52% | 1002.6 hPa | 0 mm | - | 0 W/m² | - |
| 1777947224 | 22.22° C | 53% | 1002.4 hPa | 0 mm | - | 0 W/m² | - |
| 1777946920 | 22.22° C | 53% | 1002.3 hPa | 0 mm | - | 0 W/m² | - |
| 1777946616 | 22.22° C | 53% | 1002.1 hPa | 0 mm | - | 0 W/m² | - |
| 1777946313 | 22.22° C | 52% | 1002 hPa | 0 mm | - | 0 W/m² | - |
| 1777946010 | 22.78° C | 49% | 1002.1 hPa | 0 mm | - | 0 W/m² | - |
| 1777945707 | 22.78° C | 48% | 1001.9 hPa | 0 mm | - | 0 W/m² | - |
| 1777945404 | 22.78° C | 50% | 1001.9 hPa | 0 mm | - | 0 W/m² | - |
| 1777945101 | 22.78° C | 49% | 1001.8 hPa | 0 mm | - | 0 W/m² | - |
| 1777944798 | 22.78° C | 50% | 1001.8 hPa | 0 mm | - | 0 W/m² | - |
| 1777944497 | 22.78° C | 50% | 1001.6 hPa | 0 mm | - | 0 W/m² | - |
| 1777944194 | 23.33° C | 48% | 1001.5 hPa | 0 mm | - | 1 W/m² | - |
| 1777943889 | 23.89° C | 46% | 1001.1 hPa | 0 mm | - | 1 W/m² | - |
| 1777943587 | 23.89° C | 46% | 1001.2 hPa | 0 mm | - | 3 W/m² | - |
| 1777943282 | 24.44° C | 46% | 1001.3 hPa | 0 mm | - | 4 W/m² | - |
| 1777942978 | 24.44° C | 43% | 1001 hPa | 0 mm | - | 7 W/m² | - |
| 1777942674 | 25° C | 44% | 1001 hPa | 0 mm | - | 11 W/m² | - |
| 1777942372 | 25° C | 43% | 1001.1 hPa | 0 mm | - | 15 W/m² | - |
| 1777942069 | 25° C | 42% | 1000.9 hPa | 0 mm | - | 19 W/m² | - |
| 1777941765 | 25.56° C | 43% | 1000.8 hPa | 0 mm | - | 25 W/m² | - |
| 1777941463 | 25.56° C | 41% | 1000.6 hPa | 0 mm | - | 34 W/m² | - |
| 1777941160 | 25.56° C | 43% | 1000.6 hPa | 0 mm | - | 41 W/m² | - |
* Rain latest hour (hover to see other rain measurements)
** Current wind speed in m/s (hover to see current wind gust speed)